Weather History for CWWE - September, 2012

Change the Weather History Date:

Friday, September 14, 2012

  Actual Average Record
Temperature  
Mean Temperature 56 °F -  
Max Temperature 65 °F - - ()
Min Temperature 47 °F - - ()
Degree Days  
Heating Degree Days 9    
Growing Degree Days 6 (Base 50)    
Moisture  
Dew Point 55 °F    
Average Humidity 93    
Maximum Humidity 99    
Minimum Humidity 82    
Precipitation  
Precipitation 0.00 in - - ()
Sea Level Pressure  
Sea Level Pressure 30.29 in    
Wind  
Wind Speed 6 mph ()    
Max Wind Speed 12 mph    
Max Gust Speed -    
T = Trace of Precipitation, MM = Missing Value Source: Averaged Metar Reports

Daily Weather History Graph

Daily Weather History Graph

Search for Another Location

Airport or City:

Trip Planner

Search our weather history database for the weather conditions in past years. The results will help you decide how hot, cold, wet, or windy it might be!

Date:

Astronomy

Sep. 14, 2012 Rise Set
Actual Time 6:57 AM ADT 7:30 PM ADT
Civil Twilight 6:28 AM ADT 7:59 PM ADT
Nautical Twilight 5:53 AM ADT 8:33 PM ADT
Astronomical Twilight 5:18 AM ADT 9:08 PM ADT
Moon 5:15 AM ADT (9/14) 6:24 PM ADT (9/14)
Length of Visible Light 13h 30m
Length of Day
12h 32m
Waning Crescent, 3% of the Moon is Illuminated
Sep 14
Waning Crescent
Sep 15
New
Sep 22
First Quarter
Sep 30
Full
Oct 8
Last Quarter

Hourly Weather History & Observations

Time (ADT) Temp. Dew Point Humidity Pressure Visibility Wind Dir Wind Speed Gust Speed Precip Events Conditions
12:00 AM 55 °F 54 °F 97% 30.32 in - SW 6.9 mph - -  
12:00 AM 54.9 °F 54.3 °F 98% 30.32 in - SW 6.9 mph - N/A   Unknown
1:00 AM 54.3 °F 53.6 °F 97% 30.33 in - WSW 6.9 mph - N/A   Unknown
2:00 AM 53.4 °F 52.7 °F 97% 30.33 in - WSW 6.9 mph - N/A   Unknown
3:00 AM 51 °F 50 °F 96% 30.32 in - WSW 5.8 mph - -  
3:00 AM 50.9 °F 50.2 °F 97% 30.32 in - WSW 5.8 mph - N/A   Unknown
4:00 AM 50.4 °F 49.6 °F 97% 30.32 in - WSW 5.8 mph - N/A   Unknown
5:00 AM 49.3 °F 48.6 °F 97% 30.32 in - WSW 4.6 mph - N/A   Unknown
6:00 AM 49 °F 48 °F 97% 30.32 in - WSW 3.5 mph - -  
6:00 AM 48.7 °F 48.4 °F 99% 30.32 in - WSW 3.5 mph - N/A   Unknown
7:00 AM 48.7 °F 48.2 °F 98% 30.32 in - WSW 1.2 mph - N/A   Unknown
8:00 AM 52.9 °F 52.7 °F 99% 30.32 in - SSW 2.3 mph - N/A   Unknown
9:00 AM 56 °F 55 °F 94% 30.32 in - SW 2.3 mph - -  
9:00 AM 56.5 °F 54.7 °F 94% 30.32 in - SW 2.3 mph - N/A   Unknown
10:00 AM 57.7 °F 54.9 °F 90% 30.31 in - SSW 3.5 mph - N/A   Unknown
11:00 AM 61.0 °F 58.3 °F 91% 30.31 in - South 3.5 mph - N/A   Unknown
12:00 PM 63 °F 59 °F 83% 30.30 in - South 6.9 mph - -  
12:00 PM 62.8 °F 59.0 °F 87% 30.30 in - South 6.9 mph - N/A   Unknown
1:00 PM 63.7 °F 59.7 °F 87% 30.30 in - South 6.9 mph - N/A   Unknown
2:00 PM 64.9 °F 60.4 °F 85% 30.28 in - South 9.2 mph - N/A   Unknown
3:00 PM 64 °F 60 °F 82% 30.26 in - South 8.1 mph - -  
3:00 PM 64.4 °F 59.7 °F 85% 30.26 in - South 8.1 mph - N/A   Unknown
4:00 PM 64.2 °F 59.4 °F 84% 30.25 in - South 11.5 mph - N/A   Unknown
5:00 PM 63.0 °F 59.4 °F 88% 30.24 in - South 11.5 mph - N/A   Unknown
6:00 PM 62 °F 59 °F 87% 30.24 in - South 9.2 mph - -  
6:00 PM 62.1 °F 59.2 °F 90% 30.24 in - South 9.2 mph - N/A   Unknown
7:00 PM 59.4 °F 57.6 °F 94% 30.23 in - SSW 10.4 mph - N/A   Unknown
8:00 PM 57.9 °F 56.8 °F 96% 30.22 in - SSW 8.1 mph - N/A   Unknown
9:00 PM 57 °F 57 °F 98% 30.23 in - SW 8.1 mph - -  
9:00 PM 57.4 °F 56.7 °F 97% 30.23 in - SW 8.1 mph - N/A   Unknown
10:00 PM 56.5 °F 55.9 °F 98% 30.22 in - SW 6.9 mph - N/A   Unknown
11:00 PM 55.2 °F 54.7 °F 98% 30.22 in - WSW 6.9 mph - N/A   Unknown